| time (UTC) | temp F | wind direction | speed MPH | gust MPH | rain 1hr in | rain 24hr in | rain mn in | humidity % | barometer mb |
| 20260508102004 | 28 | 357 | 1.0 | 2.0 | 0.00 | 0.00 | 0.00 | 93 | 1008.6 |
| 20260508101004 | 28 | 326 | 1.0 | 1.0 | 0.00 | 0.00 | 0.00 | 92 | 1008.5 |
| 20260508100004 | 28 | 32 | 0.0 | 1.0 | 0.00 | 0.00 | 0.00 | 92 | 1008.7 |
| 20260508095004 | 29 | 319 | 0.0 | 1.0 | 0.00 | 0.00 | 0.00 | 91 | 1008.6 |
| 20260508094004 | 29 | 311 | 1.0 | 2.0 | 0.00 | 0.00 | 0.00 | 90 | 1008.8 |
| 20260508093004 | 30 | 14 | 1.0 | 2.0 | 0.00 | 0.00 | 0.00 | 89 | 1008.7 |
| 20260508092003 | 31 | 8 | 1.0 | 2.0 | 0.00 | 0.00 | 0.00 | 88 | 1008.8 |
| 20260508091004 | 31 | 5 | 1.0 | 1.0 | 0.00 | 0.00 | 0.00 | 86 | 1008.7 |
| 20260508090004 | 32 | 299 | 0.0 | 1.0 | 0.00 | 0.00 | 0.00 | 85 | 1009.0 |
| 20260508085003 | 33 | 332 | 0.0 | 1.0 | 0.00 | 0.00 | 0.00 | 85 | 1008.8 |
| 20260508083004 | 33 | 38 | 1.0 | 1.0 | 0.00 | 0.00 | 0.00 | 85 | 1009.3 |
| 20260508082003 | 33 | 1 | 1.0 | 1.0 | 0.00 | 0.00 | 0.00 | 84 | 1009.2 |
| 20260508081004 | 33 | 312 | 0.0 | 0.0 | 0.00 | 0.00 | 0.00 | 84 | 1009.3 |
| 20260508080004 | 33 | 22 | 0.0 | 1.0 | 0.00 | 0.00 | 0.00 | 84 | 1009.3 |
| 20260508075004 | 33 | 30 | 0.0 | 1.0 | 0.00 | 0.00 | 0.00 | 84 | 1009.3 |
| 20260508074003 | 32 | 20 | 0.0 | 1.0 | 0.00 | 0.00 | 0.00 | 85 | 1009.4 |
| 20260508073004 | 32 | 18 | 0.0 | 1.0 | 0.00 | 0.00 | 0.00 | 85 | 1009.6 |
| 20260508072003 | 32 | 4 | 0.0 | 1.0 | 0.00 | 0.00 | 0.00 | 84 | 1009.5 |
| 20260508071003 | 33 | 38 | 0.0 | 1.0 | 0.00 | 0.00 | 0.00 | 85 | 1009.5 |
| 20260508070004 | 33 | 27 | 0.0 | 1.0 | 0.00 | 0.00 | 0.00 | 84 | 1009.5 |
| 20260508065004 | 33 | 21 | 0.0 | 1.0 | 0.00 | 0.00 | 0.00 | 84 | 1009.8 |
| 20260508064004 | 33 | 345 | 0.0 | 1.0 | 0.00 | 0.00 | 0.00 | 82 | 1009.7 |
| 20260508063003 | 33 | 304 | 0.0 | 1.0 | 0.00 | 0.00 | 0.00 | 82 | 1009.9 |
| 20260508062004 | 33 | 21 | 0.0 | 1.0 | 0.00 | 0.00 | 0.00 | 81 | 1009.9 |
| 20260508061004 | 33 | 329 | 0.0 | 1.0 | 0.00 | 0.00 | 0.00 | 80 | 1010.2 |
| 20260508060005 | 34 | 5 | 0.0 | 1.0 | 0.00 | 0.00 | 0.00 | 79 | 1010.3 |
| 20260508055004 | 34 | 329 | 0.0 | 1.0 | 0.00 | 0.00 | 0.00 | 78 | 1010.2 |
| 20260508054004 | 34 | 25 | 1.0 | 1.0 | 0.00 | 0.00 | 0.00 | 78 | 1010.2 |
| 20260508053004 | 35 | 17 | 0.0 | 1.0 | 0.00 | 0.00 | 0.00 | 77 | 1010.4 |
| 20260508052004 | 36 | 48 | 0.0 | 1.0 | 0.00 | 0.00 | 0.00 | 76 | 1010.6 |
| 20260508051003 | 36 | 0 | 0.0 | 2.0 | 0.00 | 0.00 | 0.00 | 74 | 1010.5 |
| 20260508050003 | 37 | 60 | 1.0 | 1.0 | 0.00 | 0.00 | 0.00 | 72 | 1010.6 |
| 20260508045004 | 37 | 22 | 0.0 | 2.0 | 0.00 | 0.00 | 0.00 | 70 | 1010.5 |
| 20260508043004 | 39 | 22 | 0.0 | 1.0 | 0.00 | 0.00 | 0.00 | 65 | 1010.6 |
| 20260508042004 | 40 | 49 | 0.0 | 2.0 | 0.00 | 0.00 | 0.00 | 63 | 1010.4 |
| 20260508040004 | 41 | 28 | 1.0 | 3.0 | 0.00 | 0.00 | 0.00 | 58 | 1010.5 |
| 20260508035004 | 42 | 359 | 0.0 | 1.0 | 0.00 | 0.00 | 0.00 | 54 | 1010.4 |
| 20260508034004 | 43 | 352 | 1.0 | 1.0 | 0.00 | 0.00 | 0.00 | 51 | 1010.4 |
| 20260508033004 | 45 | 47 | 1.0 | 3.0 | 0.00 | 0.00 | 0.00 | 47 | 1010.3 |
| 20260508032003 | 44 | 326 | 1.0 | 3.0 | 0.00 | 0.00 | 0.00 | 48 | 1010.4 |
| 20260508031004 | 44 | 31 | 0.0 | 2.0 | 0.00 | 0.00 | 0.00 | 47 | 1010.4 |
| 20260508030004 | 46 | 344 | 1.0 | 3.0 | 0.00 | 0.00 | 0.00 | 45 | 1010.4 |
| 20260508024004 | 45 | 297 | 2.0 | 5.0 | 0.00 | 0.00 | 0.00 | 45 | 1010.4 |
| 20260508023003 | 46 | 330 | 2.0 | 7.0 | 0.00 | 0.00 | 0.00 | 45 | 1010.6 |
| 20260508021004 | 42 | 300 | 2.0 | 8.0 | 0.00 | 0.00 | 0.00 | 53 | 1010.4 |
| 20260508015004 | 40 | 304 | 0.0 | 1.0 | 0.00 | 0.00 | 0.00 | 56 | 1010.1 |
| 20260508014004 | 40 | 315 | 0.0 | 1.0 | 0.00 | 0.00 | 0.00 | 54 | 1009.9 |
| 20260508013005 | 40 | 336 | 0.0 | 1.0 | 0.00 | 0.00 | 0.00 | 53 | 1009.7 |
| 20260508012004 | 40 | 281 | 0.0 | 1.0 | 0.00 | 0.00 | 0.00 | 55 | 1009.5 |
| 20260508011003 | 41 | 352 | 0.0 | 1.0 | 0.00 | 0.00 | 0.00 | 53 | 1009.4 |
| 20260508010004 | 42 | 346 | 0.0 | 1.0 | 0.00 | 0.00 | 0.00 | 52 | 1009.4 |
| 20260508005004 | 44 | 42 | 0.0 | 1.0 | 0.00 | 0.00 | 0.00 | 49 | 1009.2 |
| 20260508004004 | 45 | 72 | 0.0 | 2.0 | 0.00 | 0.00 | 0.00 | 46 | 1009.3 |
| 20260508001004 | 48 | 284 | 2.0 | 6.0 | 0.00 | 0.00 | 0.00 | 39 | 1009.2 |
| 20260508000003 | 50 | 245 | 4.0 | 6.0 | 0.00 | 0.00 | 0.00 | 36 | 1009.1 |
| 20260507235003 | 51 | 330 | 3.0 | 6.0 | 0.00 | 0.00 | 0.00 | 37 | 1009.1 |
| 20260507234003 | 51 | 270 | 3.0 | 7.0 | 0.00 | 0.00 | 0.00 | 36 | 1009.1 |
| 20260507233003 | 50 | 277 | 2.0 | 6.0 | 0.00 | 0.00 | 0.00 | 37 | 1009.2 |
| 20260507232004 | 49 | 278 | 2.0 | 5.0 | 0.00 | 0.00 | 0.00 | 40 | 1009.3 |
| 20260507231004 | 48 | 271 | 3.0 | 7.0 | 0.00 | 0.00 | 0.00 | 39 | 1009.5 |
| 20260507230004 | 48 | 339 | 5.0 | 7.0 | 0.00 | 0.00 | 0.00 | 39 | 1009.6 |
| 20260507225004 | 49 | 297 | 3.0 | 8.0 | 0.00 | 0.00 | 0.00 | 39 | 1009.6 |
| 20260507223005 | 49 | 330 | 3.0 | 8.0 | 0.00 | 0.00 | 0.00 | 40 | 1009.6 |
| 20260507221003 | 49 | 261 | 5.0 | 12.0 | 0.00 | 0.00 | 0.00 | 41 | 1009.6 |
| 20260507220003 | 49 | 306 | 4.0 | 8.0 | 0.00 | 0.00 | 0.00 | 40 | 1009.6 |
| 20260507215003 | 49 | 295 | 4.0 | 12.0 | 0.00 | 0.00 | 0.00 | 42 | 1009.6 |
| 20260507214004 | 49 | 259 | 5.0 | 8.0 | 0.00 | 0.00 | 0.00 | 40 | 1009.7 |
| 20260507212004 | 49 | 309 | 5.0 | 13.0 | 0.00 | 0.00 | 0.00 | 39 | 1009.7 |
| 20260507211003 | 52 | 281 | 4.0 | 8.0 | 0.00 | 0.00 | 0.00 | 36 | 1009.7 |
| 20260507205004 | 48 | 317 | 5.0 | 7.0 | 0.00 | 0.00 | 0.00 | 43 | 1010.1 |
| 20260507204004 | 47 | 330 | 3.0 | 8.0 | 0.00 | 0.00 | 0.00 | 46 | 1010.0 |
| 20260507203004 | 47 | 268 | 3.0 | 7.0 | 0.00 | 0.00 | 0.00 | 46 | 1010.2 |
| 20260507202004 | 47 | 5 | 2.0 | 7.0 | 0.00 | 0.00 | 0.00 | 48 | 1010.1 |
| 20260507201004 | 47 | 258 | 4.0 | 7.0 | 0.00 | 0.00 | 0.00 | 47 | 1010.3 |
| 20260507200003 | 46 | 297 | 2.0 | 7.0 | 0.00 | 0.00 | 0.00 | 50 | 1010.5 |
| 20260507195004 | 46 | 327 | 1.0 | 7.0 | 0.00 | 0.00 | 0.00 | 51 | 1010.6 |
| 20260507194004 | 46 | 339 | 2.0 | 14.0 | 0.00 | 0.00 | 0.00 | 48 | 1010.6 |
| 20260507193003 | 46 | 254 | 5.0 | 10.0 | 0.00 | 0.00 | 0.00 | 44 | 1010.5 |
| 20260507192003 | 47 | 258 | 1.0 | 9.0 | 0.00 | 0.00 | 0.00 | 43 | 1010.3 |
| 20260507190005 | 50 | 94 | 2.0 | 10.0 | 0.00 | 0.00 | 0.00 | 40 | 1010.2 |
| 20260507185004 | 47 | 248 | 3.0 | 9.0 | 0.00 | 0.00 | 0.00 | 43 | 1010.3 |
| 20260507184004 | 47 | 303 | 2.0 | 8.0 | 0.00 | 0.00 | 0.00 | 44 | 1010.3 |
| 20260507183003 | 47 | 275 | 4.0 | 8.0 | 0.00 | 0.00 | 0.00 | 44 | 1010.5 |
| 20260507182004 | 47 | 267 | 2.0 | 9.0 | 0.00 | 0.00 | 0.00 | 45 | 1010.5 |
| 20260507180004 | 46 | 295 | 3.0 | 14.0 | 0.00 | 0.00 | 0.00 | 44 | 1010.8 |
| 20260507173004 | 46 | 291 | 2.0 | 13.0 | 0.00 | 0.00 | 0.00 | 48 | 1011.0 |
| 20260507172004 | 46 | 246 | 5.0 | 10.0 | 0.00 | 0.00 | 0.00 | 47 | 1011.0 |
| 20260507165004 | 46 | 311 | 5.0 | 13.0 | 0.00 | 0.00 | 0.00 | 48 | 1011.3 |
| 20260507163004 | 45 | 262 | 4.0 | 9.0 | 0.00 | 0.00 | 0.00 | 50 | 1011.7 |
| 20260507162004 | 45 | 299 | 5.0 | 15.0 | 0.00 | 0.00 | 0.00 | 51 | 1011.8 |
| 20260507161004 | 45 | 210 | 3.0 | 12.0 | 0.00 | 0.00 | 0.00 | 53 | 1011.8 |
| 20260507155004 | 44 | 209 | 2.0 | 12.0 | 0.00 | 0.00 | 0.00 | 53 | 1012.1 |
| 20260507154005 | 45 | 266 | 5.0 | 9.0 | 0.00 | 0.00 | 0.00 | 55 | 1012.2 |
| 20260507153004 | 43 | 261 | 3.0 | 12.0 | 0.00 | 0.00 | 0.00 | 56 | 1012.3 |
| 20260507152004 | 43 | 281 | 6.0 | 15.0 | 0.00 | 0.00 | 0.00 | 55 | 1012.2 |
| 20260507151004 | 43 | 291 | 3.0 | 10.0 | 0.00 | 0.00 | 0.00 | 55 | 1012.2 |
| 20260507150003 | 43 | 279 | 3.0 | 7.0 | 0.00 | 0.00 | 0.00 | 55 | 1012.2 |
| 20260507145004 | 43 | 213 | 2.0 | 8.0 | 0.00 | 0.00 | 0.00 | 56 | 1012.3 |
| 20260507143004 | 43 | 265 | 5.0 | 9.0 | 0.00 | 0.00 | 0.00 | 56 | 1012.5 |
| 20260507142004 | 42 | 285 | 3.0 | 10.0 | 0.00 | 0.00 | 0.00 | 56 | 1012.5 |
| 20260507141004 | 42 | 266 | 5.0 | 10.0 | 0.00 | 0.00 | 0.00 | 57 | 1012.5 |
| 20260507140003 | 42 | 270 | 3.0 | 9.0 | 0.00 | 0.00 | 0.00 | 58 | 1012.7 |
| 20260507135004 | 41 | 244 | 3.0 | 7.0 | 0.00 | 0.00 | 0.00 | 59 | 1012.5 |
| 20260507134004 | 41 | 257 | 3.0 | 6.0 | 0.00 | 0.00 | 0.00 | 61 | 1012.6 |
| 20260507133003 | 40 | 254 | 1.0 | 5.0 | 0.00 | 0.00 | 0.00 | 62 | 1012.5 |
| 20260507132004 | 40 | 282 | 2.0 | 5.0 | 0.00 | 0.00 | 0.00 | 64 | 1012.5 |
| 20260507131004 | 40 | 316 | 3.0 | 6.0 | 0.00 | 0.00 | 0.00 | 64 | 1012.4 |
| 20260507130004 | 39 | 265 | 1.0 | 3.0 | 0.00 | 0.00 | 0.00 | 65 | 1012.5 |
| 20260507125004 | 39 | 330 | 0.0 | 5.0 | 0.00 | 0.00 | 0.00 | 67 | 1012.6 |
| 20260507124004 | 38 | 300 | 2.0 | 5.0 | 0.00 | 0.00 | 0.00 | 67 | 1012.5 |
| 20260507123003 | 38 | 311 | 1.0 | 3.0 | 0.00 | 0.00 | 0.00 | 67 | 1012.4 |
| 20260507120005 | 37 | 319 | 1.0 | 6.0 | 0.00 | 0.00 | 0.00 | 69 | 1012.3 |
| 20260507115004 | 37 | 283 | 1.0 | 5.0 | 0.00 | 0.00 | 0.00 | 69 | 1012.1 |
| 20260507114003 | 37 | 331 | 1.0 | 2.0 | 0.00 | 0.00 | 0.00 | 70 | 1012.0 |
| 20260507113004 | 36 | 299 | 1.0 | 2.0 | 0.00 | 0.00 | 0.00 | 69 | 1012.0 |
| 20260507112004 | 36 | 303 | 0.0 | 2.0 | 0.00 | 0.00 | 0.00 | 70 | 1011.9 |
| 20260507111004 | 36 | 314 | 1.0 | 2.0 | 0.00 | 0.00 | 0.00 | 71 | 1011.8 |
| 20260507110004 | 36 | 281 | 1.0 | 2.0 | 0.00 | 0.00 | 0.00 | 70 | 1011.9 |
| 20260507105003 | 36 | 282 | 1.0 | 2.0 | 0.00 | 0.00 | 0.00 | 70 | 1012.0 |
| 20260507103004 | 36 | 296 | 1.0 | 3.0 | 0.00 | 0.00 | 0.00 | 70 | 1011.9 |